星链-31582 (STARLINK-31582 )

导读

STARLINK-31582是美国太空探索技术公司SpaceX星链卫星互联网项目的一颗卫星,于2024年4月18日发射升空,属于星链部署计划中的组成部分。星链旨在构建全球卫星互联网星座,该卫星入轨后服务于低轨网络覆盖,为全球偏远地区等提供宽带互联网接入服务。

基本信息
目录编号:
59545
目录名称:
STARLINK-31582
国际标识:
2024-074M
轨道中心:
EARTH
卫星名称:
星链-31582
卫星全名:
星链-31582 (STARLINK-31582 )
卫星状态:
在轨 (已飞行877 天)
发射日期:
2024-04-18 UTC
国别 :
美国 (US)
星等 :
--
该卫星已列入 空间交会检测服务 Space Conjunction Data Service (SCDS) ,当前飞行风险评估等级: 无高风险
轨道信息
数据来源 国际轨道数据 AOE轨道数据
星历时间 2026-09-11T17:45:35+0800
15小时前
查看轨道信息
2026-09-07T02:00:00+0800
5天前
查看轨道信息
半长轴 6861.197km 6861.187km
偏心率 0.0001249 0.000044
轨道倾角 43.004° 43.001°
近地点辐角 263.553° 272.941°
升交点赤经 15.004° 41.303°
平近点角 96.518° 8.845°
近地点 482.203km 482.748km
远地点 483.917km 483.352km
周期 94.267分钟 94.267分钟
每日圈数 15.275766 15.275797
详细信息
固有亮度:
5
最大亮度:
1.5
卫星平台:
Starlink v2.0 mini
覆盖范围:
全球
运营商:
太空探索技术公司
运营商所在国:
美国
制造商(研发单位):
太空探索技术公司
制造商所在国:
美国
使用方式:
暂无
卫星简介
星链(Starlink)计划是由太空探索技术公司(SpaceX)提出的一个巨型低轨卫星互联网星座项目,计划在2019年至2024年间在太空搭建由约1.2万颗卫星组成的“星链”网络,其中1584颗将部署在地球上空550千米处的近地轨道,并从2020年开始工作。该卫星仍在工作。
2D轨道图
3D轨道图
轨道高度分析图
轨道倾角分析图
轨道综合分析图
查看轨道综合分析图
交会数据列表
事件ID 空间交会对象 最接近时刻(TCA) 交会距离 交会风险概率(CRP) 交会风险指数(CRI) 操作
CDM_260911-211105-325505-954521
2026-09-11T
21:11:04+0000
2.724 km
极远距离
9.092218E-7 极低风险 0.34
与全量物体交会距离演化趋势
与全量物体交会风险概率演化趋势